Temp
-8 -7 -8 -8 -7 -7 -7 -7 -7 -7 -7 -7 -7 -8 -8 -7 -7 -8 -7 -7 -7 -7 -7 -7 -7 -7 -7 -7 -7 -6 -7 -7 -7 -7 -7 -7 -7 -6 -6 -7 -6 -6 -6
-7 -7 -8 -7 -8 -8 -7 -7 -7 -7 -7 -7 -8 -8 -7 -7 -7 -7 -7 -7 -7 -7 -7 -7 -7 -7 -7 -7 -7 -6 -6 -7 -7 -7 -7 -7 -7 -7 -7 -7 -7 -6 -6
-7 -7 -7 -8 -7 -8 -8 -7 -7 -6 -7 -7 -8 -7 -8 -8 -7 -8 -7 -7 -7 -7 -7 -7 -7 -7 -7 -7 -7 -6 -7 -7 -7 -7 -7 -7 -7 -7 -7 -7 -7 -6 -6
-7 -7 -7 -7 -7 -7 -7 -7 -7 -7 -7 -7 -8 -7 -7 -7 -8 -8 -8 -8 -7 -7 -7 -7 -7 -7 -7 -7 -7 -7 -7 -7 -7 -7 -7 -7 -7 -7 -7 -7 -7 -7 -7
-8 -7 -7 -7 -7 -7 -7 -7 -7 -7 -7 -7 -7 -7 -8 -8 -8 -8 -8 -8 -7 -8 -8 -7 -7 -7 -7 -7 -7 -7 -7 -7 -7 -7 -7 -7 -7 -7 -7 -7 -7 -7 -7
-7 -7 -7 -7 -7 -7 -7 -7 -7 -7 -7 -7 -7 -7 -7 -7 -7 -7 -7 -8 -8 -8 -8 -8 -7 -7 -7 -7 -7 -7 -7 -7 -7 -7 -7 -7 -7 -6 -7 -7 -6 -6 -7
-7 -6 -6 -6 -6 -6 -6 -6 -7 -7 -7 -7 -8 -7 -7 -7 -7 -7 -7 -7 -8 -8 -8 -8 -8 -8 -8 -8 -8 -8 -7 -7 -7 -7 -7 -7 -7 -7 -6 -7 -7 -6 -7
-6 -6 -7 -7 -6 -6 -6 -7 -7 -7 -7 -7 -7 -7 -7 -8 -8 -7 -7 -8 -8 -8 -9 -8 -8 -8 -8 -7 -7 -8 -7 -7 -7 -7 -7 -7 -7 -7 -7 -6 -7 -7 -6
-6 -6 -7 -7 -7 -7 -6 -6 -6 -7 -7 -7 -7 -7 -7 -7 -8 -7 -8 -7 -7 -8 -8 -8 -8 -8 -8 -8 -8 -8 -7 -7 -7 -7 -7 -7 -7 -7 -7 -6 -7 -6 -6
-7 -7 -7 -7 -7 -7 -6 -6 -6 -7 -7 -7 -8 -8 -7 -8 -8 -8 -7 -7 -7 -7 -8 -8 -8 -8 -8 -8 -8 -8 -8 -7 -7 -7 -7 -7 -7 -7 -7 -7 -7 -7 -7
-7 -7 -7 -7 -7 -7 -7 -7 -7 -7 -7 -7 -8 -8 -8 -8 -7 -8 -8 -8 -8 -8 -8 -8 -8 -8 -8 -8 -7 -7 -7 -7 -7 -7 -7 -7 -7 -7 -7 -7 -8 -7 -7
-6 -6 -7 -7 -7 -6 -7 -7 -7 -7 -7 -8 -8 -8 -8 -8 -8 -8 -8 -8 -8 -8 -8 -8 -8 -8 -8 -8 -8 -8 -8 -8 -7 -7 -7 -7 -7 -7 -8 -7 -7 -7 -7
-6 -7 -7 -7 -6 -6 -7 -7 -8 -8 -8 -8 -8 -8 -8 -8 -8 -8 -8 -7 -8 -8 -8 -8 -8 -8 -8 -8 -8 -8 -8 -8 -8 -7 -7 -7 -7 -8 -8 -8 -8 -7 -7
-7 -7 -6 -6 -7 -7 -7 -7 -8 -8 -7 -8 -8 -8 -8 -8 -8 -8 -8 -8 -8 -8 -8 -8 -8 -8 -8 -8 -8 -8 -8 -8 -8 -8 -7 -8 -8 -8 -7 -7 -7 -7 -8
-7 -6 -6 -6 -7 -7 -7 -7 -8 -7 -8 -8 -8 -8 -8 -8 -8 -8 -8 -8 -8 -8 -8 -8 -8 -9 -9 -8 -8 -8 -8 -8 -8 -7 -8 -8 -8 -7 -7 -7 -8 -7 -8
-7 -7 -7 -6 -6 -6 -7 -7 -7 -8 -8 -8 -8 -8 -8 -8 -8 -8 -8 -8 -8 -8 -8 -8 -8 -8 -8 -8 -8 -7 -8 -8 -8 -8 -8 -8 -8 -8 -8 -8 -8 -8 -8
-7 -6 -6 -6 -6 -6 -6 -6 -6 -7 -7 -7 -7 -7 -8 -8 -7 -8 -8 -8 -8 -8 -8 -8 -8 -8 -8 -8 -8 -8 -8 -8 -8 -8 -7 -7 -7 -7 -8 -8 -8 -8 -8
-7 -7 -7 -7 -6 -6 -6 -6 -6 -6 -6 -6 -6 -6 -6 -6 -7 -7 -7 -7 -8 -7 -7 -7 -7 -8 -8 -8 -8 -7 -7 -7 -8 -7 -8 -7 -7 -7 -7 -8 -8 -7 -7
-7 -7 -7 -7 -6 -7 -6 -6 -6 -6 -6 -6 -6 -6 -6 -6 -6 -6 -6 -7 -7 -7 -7 -7 -7 -8 -7 -7 -7 -7 -7 -7 -7 -7 -7 -8 -8 -8 -8 -8 -8 -9 -9
-8 -7 -7 -7 -7 -6 -6 -6 -6 -6 -6 -6 -6 -6 -6 -6 -6 -7 -7 -7 -7 -7 -7 -7 -7 -7 -7 -7 -7 -8 -8 -8 -8 -8 -8 -8 -8 -8 -9 -9 -9 -9 -9
-8 -7 -7 -7 -7 -7 -7 -7 -7 -7 -7 -7 -7 -7 -7 -7 -7 -7 -7 -7 -7 -7 -7 -7 -7 -7 -8 -8 -8 -8 -8 -8 -8 -8 -9 -9 -10 -10 -10 -10 -10 -10 -10
-8 -7 -7 -7 -7 -7 -7 -7 -7 -7 -7 -7 -7 -7 -7 -8 -8 -8 -8 -8 -8 -8 -8 -8 -8 -8 -8 -8 -8 -8 -8 -9 -8 -8 -9 -9 -9 -10 -11 -11 -11 -11 -11
-8 -8 -8 -7 -7 -7 -7 -7 -7 -7 -7 -7 -7 -7 -7 -7 -7 -8 -8 -8 -8 -9 -9 -9 -9 -9 -9 -9 -9 -9 -9 -9 -10 -10 -10 -10 -10 -11 -11 -12 -12 -12 -12
-8 -7 -8 -7 -7 -7 -7 -7 -7 -7 -7 -7 -7 -7 -7 -7 -7 -7 -8 -8 -9 -9 -10 -10 -10 -10 -10 -10 -10 -10 -10 -10 -10 -10 -10 -11 -11 -12 -12 -13 -13 -13 -13
-8 -8 -8 -8 -8 -8 -8 -8 -8 -7 -8 -8 -8 -8 -8 -8 -8 -8 -8 -9 -9 -10 -10 -10 -10 -11 -11 -11 -11 -11 -11 -11 -11 -11 -12 -12 -13 -13 -13 -13 -13 -13 -13
-8 -8 -8 -8 -8 -8 -8 -8 -8 -8 -8 -8 -8 -8 -8 -8 -8 -8 -9 -9 -10 -10 -11 -11 -11 -11 -11 -11 -11 -12 -12 -12 -13 -13 -13 -13 -13 -13 -13 -13 -13 -13 -13
Height
5895 5894 5894 5895 5897 5895 5895 5897 5898 5899 5899 5900 5900 5901 5902 5903 5905 5908 5911 5912 5914 5916 5916 5916 5917 5918 5918 5919 5919 5918 5917 5919 5919 5919 5919 5920 5920 5921 5921 5921 5922 5921 5920
5894 5892 5891 5892 5893 5892 5891 5892 5893 5894 5894 5896 5896 5895 5897 5899 5900 5902 5905 5909 5910 5912 5912 5913 5914 5915 5915 5915 5916 5914 5911 5912 5916 5917 5917 5917 5918 5918 5918 5918 5919 5919 5919
5892 5890 5890 5891 5891 5889 5888 5889 5890 5891 5891 5891 5891 5891 5890 5893 5894 5897 5899 5903 5906 5907 5909 5910 5910 5911 5912 5911 5912 5911 5908 5910 5913 5914 5913 5914 5915 5916 5917 5917 5917 5917 5917
5888 5887 5888 5890 5889 5887 5888 5886 5886 5886 5886 5885 5886 5885 5885 5889 5891 5893 5896 5898 5901 5903 5903 5904 5905 5906 5907 5907 5908 5909 5909 5909 5911 5912 5911 5911 5912 5911 5912 5914 5915 5915 5914
5886 5885 5885 5886 5885 5884 5883 5883 5883 5882 5882 5881 5880 5883 5884 5885 5888 5890 5893 5895 5897 5898 5898 5899 5900 5902 5903 5903 5904 5905 5907 5906 5907 5908 5907 5907 5907 5908 5908 5908 5910 5911 5911
5883 5883 5883 5882 5882 5880 5878 5879 5879 5878 5876 5876 5877 5878 5880 5881 5883 5886 5888 5890 5893 5893 5895 5895 5896 5896 5898 5899 5900 5900 5901 5902 5902 5903 5902 5902 5902 5903 5903 5902 5904 5905 5907
5881 5880 5878 5878 5876 5875 5875 5874 5874 5874 5874 5874 5875 5875 5876 5877 5879 5881 5882 5885 5889 5889 5891 5891 5891 5892 5893 5895 5895 5895 5896 5897 5897 5897 5897 5896 5898 5899 5899 5898 5898 5899 5900
5878 5877 5876 5874 5872 5871 5872 5871 5871 5869 5869 5869 5870 5871 5871 5872 5874 5875 5877 5879 5882 5884 5886 5886 5887 5887 5888 5889 5890 5891 5890 5891 5891 5893 5892 5892 5893 5893 5893 5893 5894 5894 5893
5876 5874 5874 5873 5871 5869 5868 5867 5866 5865 5864 5865 5866 5867 5866 5866 5868 5870 5871 5874 5877 5879 5880 5881 5883 5883 5884 5884 5885 5885 5885 5886 5886 5886 5886 5887 5887 5887 5887 5887 5887 5888 5888
5873 5873 5872 5871 5869 5867 5865 5865 5862 5861 5860 5860 5862 5863 5863 5864 5864 5865 5867 5869 5871 5873 5875 5878 5879 5879 5878 5876 5879 5879 5881 5880 5880 5879 5880 5881 5880 5880 5880 5880 5881 5882 5882
5874 5871 5870 5869 5867 5865 5862 5861 5860 5857 5855 5855 5857 5857 5859 5860 5861 5862 5862 5865 5866 5868 5869 5871 5875 5874 5872 5874 5874 5872 5872 5872 5867 5867 5870 5873 5874 5874 5874 5874 5874 5876 5876
5872 5869 5868 5866 5866 5863 5861 5857 5857 5855 5853 5852 5853 5854 5854 5855 5857 5858 5858 5859 5861 5864 5865 5868 5868 5868 5868 5870 5868 5867 5866 5865 5864 5864 5866 5866 5867 5868 5869 5870 5869 5869 5868
5870 5869 5867 5866 5864 5861 5859 5856 5853 5852 5852 5851 5850 5850 5850 5851 5853 5854 5854 5855 5858 5860 5863 5863 5863 5864 5865 5865 5863 5862 5861 5861 5860 5858 5858 5858 5862 5863 5864 5864 5863 5863 5862
5870 5868 5867 5865 5862 5860 5858 5855 5853 5851 5850 5849 5848 5848 5848 5849 5849 5852 5853 5852 5855 5856 5858 5857 5859 5859 5860 5861 5860 5859 5857 5857 5855 5855 5855 5855 5857 5857 5858 5857 5856 5854 5854
5869 5868 5866 5865 5862 5859 5857 5855 5853 5850 5849 5848 5848 5848 5848 5849 5849 5850 5851 5851 5850 5851 5853 5854 5855 5855 5855 5856 5855 5854 5853 5852 5851 5852 5850 5849 5849 5848 5848 5847 5846 5845 5844
5869 5867 5865 5864 5861 5859 5857 5856 5853 5850 5849 5848 5848 5848 5848 5848 5849 5850 5850 5848 5846 5847 5849 5850 5851 5850 5850 5851 5850 5849 5849 5848 5847 5846 5845 5843 5842 5840 5838 5838 5836 5834 5834
5867 5867 5864 5863 5860 5858 5856 5855 5854 5852 5850 5849 5849 5848 5848 5848 5849 5850 5849 5848 5847 5845 5845 5845 5846 5846 5845 5845 5844 5844 5843 5841 5840 5838 5837 5835 5833 5831 5829 5828 5826 5825 5824
5866 5865 5863 5863 5860 5859 5857 5856 5854 5853 5852 5852 5851 5850 5849 5849 5848 5848 5847 5846 5845 5843 5843 5842 5841 5841 5840 5840 5839 5837 5835 5833 5831 5830 5828 5825 5823 5822 5821 5820 5817 5817 5816
5865 5863 5862 5861 5860 5858 5857 5857 5856 5856 5855 5854 5853 5852 5851 5850 5849 5848 5846 5845 5843 5841 5840 5839 5837 5836 5835 5834 5832 5831 5829 5827 5824 5821 5819 5818 5816 5815 5814 5812 5811 5809 5807
5864 5862 5861 5860 5858 5857 5857 5857 5857 5856 5855 5854 5853 5852 5851 5849 5847 5846 5845 5843 5841 5839 5837 5835 5834 5832 5830 5828 5826 5824 5822 5820 5818 5816 5814 5812 5809 5807 5805 5802 5800 5800 5799
5861 5860 5859 5858 5857 5856 5855 5856 5856 5855 5854 5853 5852 5850 5849 5847 5845 5843 5841 5839 5837 5834 5832 5830 5828 5826 5824 5821 5819 5816 5813 5811 5809 5806 5804 5802 5801 5799 5797 5795 5793 5792 5790
5859 5858 5858 5856 5854 5854 5853 5853 5852 5851 5850 5848 5846 5845 5843 5841 5839 5837 5835 5834 5832 5830 5828 5825 5822 5820 5817 5815 5813 5811 5808 5805 5802 5799 5795 5793 5790 5788 5786 5785 5784 5782 5781
5855 5857 5856 5853 5852 5850 5849 5849 5848 5847 5845 5843 5841 5840 5838 5835 5833 5830 5828 5825 5823 5821 5819 5818 5815 5812 5810 5807 5804 5801 5798 5795 5792 5789 5786 5784 5782 5779 5778 5776 5774 5772 5771
5852 5852 5852 5851 5849 5847 5846 5846 5844 5843 5842 5839 5836 5833 5832 5829 5827 5824 5821 5819 5816 5814 5811 5809 5806 5803 5800 5797 5794 5791 5788 5784 5781 5778 5776 5775 5772 5770 5768 5767 5766 5764 5762
5849 5849 5848 5847 5845 5843 5842 5841 5839 5838 5837 5834 5831 5828 5825 5823 5820 5817 5814 5811 5808 5805 5802 5799 5796 5793 5789 5787 5784 5781 5777 5774 5771 5769 5767 5764 5763 5762 5760 5758 5757 5756 5753
5847 5846 5845 5843 5842 5840 5838 5836 5834 5832 5831 5828 5826 5822 5818 5815 5812 5808 5805 5802 5799 5796 5793 5789 5785 5782 5780 5777 5774 5770 5767 5764 5761 5759 5758 5756 5754 5754 5752 5750 5748 5747 5745
Wind_Speed
9 7 5 6 7 14 14 14 15 15 17 17 18 20 22 22 17 23 28 24 25 22 20 16 14 15 14 13 14 16 19 19 12 10 11 10 9 8 8 7 8 7 8
7 5 3 6 9 8 13 15 17 16 14 16 18 16 25 22 20 23 28 27 24 25 22 19 19 17 15 15 15 16 18 17 13 12 11 13 12 12 11 12 10 9 10
8 5 4 7 9 9 8 13 17 22 21 19 20 26 26 28 26 22 23 29 27 26 24 23 21 20 16 16 15 12 7 14 15 16 14 14 14 15 14 15 15 14 12
7 8 7 9 10 10 13 13 14 18 19 19 20 14 21 23 25 22 19 21 26 28 27 27 25 23 23 19 15 13 13 13 15 16 15 17 18 20 18 18 19 19 19
10 10 13 13 12 12 14 18 17 17 18 18 19 16 20 28 23 20 25 20 20 21 23 22 23 23 22 19 17 16 17 21 21 19 18 21 23 22 19 20 21 21 23
10 12 13 14 12 12 16 15 16 19 20 21 20 18 15 17 19 21 28 24 24 20 21 19 18 21 21 21 20 19 20 19 22 24 27 28 28 25 22 21 22 20 22
9 13 11 12 12 12 12 16 15 18 20 21 20 20 22 26 22 23 22 22 23 22 22 21 21 22 21 21 21 22 23 25 22 23 24 26 28 27 23 19 20 22 24
10 10 10 10 10 12 12 12 16 17 19 21 21 23 18 22 23 21 20 21 24 21 22 21 23 24 24 25 27 26 23 28 32 27 28 27 32 30 29 26 27 27 27
10 8 10 10 11 10 10 13 13 16 20 20 19 18 17 13 20 21 21 20 20 22 24 22 20 23 28 29 31 30 28 26 29 31 27 31 28 34 31 28 26 23 20
10 9 10 10 8 11 12 13 15 17 19 19 18 18 18 17 19 20 22 21 20 25 25 22 23 23 24 28 33 32 31 33 32 32 30 31 37 32 33 32 28 25 23
8 6 6 6 8 10 11 10 10 12 16 17 17 19 19 20 19 20 24 21 20 23 25 25 24 25 24 24 29 31 28 29 27 30 29 28 33 37 37 36 31 29 28
6 5 7 6 7 8 7 8 7 7 11 13 15 16 19 21 20 18 19 22 20 19 20 22 23 23 21 20 24 20 23 27 22 31 31 34 37 43 35 32 29 28 29
5 4 4 4 6 6 7 9 8 7 7 8 11 14 15 18 17 14 17 20 19 20 21 22 22 22 23 25 25 22 23 13 22 20 33 22 28 26 25 25 24 25 25
4 3 4 4 5 7 8 9 9 8 6 5 5 8 8 10 11 11 14 8 13 15 19 22 21 22 22 23 23 22 24 23 21 19 22 23 23 25 29 28 26 28 30
6 3 4 6 6 9 11 10 10 8 8 4 2 1 5 6 7 12 11 12 18 21 17 19 20 20 19 20 19 21 18 19 20 18 19 23 26 28 29 32 35 37 38
8 7 6 6 8 10 10 10 11 10 10 7 5 4 3 1 4 7 10 13 11 11 14 16 18 21 21 21 21 22 19 18 19 20 20 23 25 24 28 31 32 33 36
8 8 7 7 8 9 10 8 9 10 11 9 9 7 5 1 3 4 6 9 10 12 15 16 19 21 21 21 23 24 23 23 24 23 21 22 23 22 21 21 25 28 30
7 7 9 8 8 7 8 10 12 11 9 7 7 8 12 9 5 2 3 5 9 13 15 17 18 20 22 23 19 18 21 17 17 17 22 18 18 20 25 23 20 20 22
8 8 7 7 6 5 6 7 8 9 9 9 9 9 8 8 7 8 9 10 12 11 12 13 14 16 18 20 20 19 18 19 21 22 24 24 24 25 27 28 28 30 29
8 9 8 7 4 4 3 3 3 3 3 4 6 7 8 9 10 12 12 13 14 15 16 16 17 18 19 20 21 22 22 24 24 25 26 27 28 29 31 29 29 29 29
8 9 8 8 6 4 3 4 5 6 8 9 11 12 12 13 13 14 15 16 16 18 20 22 23 24 25 26 28 29 31 34 36 36 34 32 30 29 29 30 30 31 30
7 10 10 9 9 9 9 10 12 13 15 16 16 17 16 16 15 15 14 14 16 18 20 23 24 25 25 27 29 29 33 35 36 37 38 39 37 34 30 29 30 31 31
9 9 10 9 9 10 11 12 14 16 16 16 16 17 17 18 19 20 21 20 21 21 22 23 23 25 27 29 30 32 34 34 34 36 37 36 36 33 32 31 28 27 26
11 11 11 10 10 11 10 10 12 13 15 18 20 22 22 23 24 24 24 24 24 25 25 26 26 26 29 29 31 32 34 35 36 37 36 34 33 33 30 27 26 26 27
11 10 7 6 5 8 12 14 17 19 21 22 23 25 28 28 28 28 27 27 27 28 28 29 30 31 32 33 35 36 35 35 35 35 33 30 29 28 27 28 28 29 30
8 7 5 8 12 16 19 21 24 26 25 25 26 27 30 31 31 31 30 31 31 30 31 32 33 33 34 34 35 35 35 35 34 32 30 29 29 28 28 29 30 30 32
Wind_Direction
241 230 222 231 230 248 244 241 244 247 251 252 254 258 253 249 252 249 245 242 243 243 251 247 256 266 271 289 287 292 279 267 244 252 240 244 247 248 241 243 235 224 216
231 221 216 242 252 256 244 245 245 244 259 258 263 277 257 246 249 251 240 239 242 242 244 247 255 260 263 280 283 292 280 231 233 244 240 245 249 250 240 239 244 234 229
245 259 244 261 258 272 250 236 238 245 251 262 259 266 262 246 238 246 237 244 242 237 242 248 253 259 257 267 278 291 252 217 231 245 246 246 247 251 253 250 244 242 242
245 255 253 257 256 244 256 255 252 246 255 261 253 280 236 233 237 237 229 227 237 241 242 249 252 255 269 254 261 262 239 237 241 248 255 259 253 246 244 251 253 245 242
244 265 261 263 270 261 250 250 247 258 257 258 260 261 248 248 241 237 238 234 236 242 244 246 250 251 249 252 248 254 243 250 245 252 266 257 256 254 250 254 257 249 247
240 274 275 282 274 269 270 262 254 254 261 258 256 256 240 230 236 243 244 236 240 248 247 243 238 240 240 242 250 249 249 253 244 260 271 253 251 249 264 249 246 254 255
273 274 279 274 284 276 262 262 255 255 254 255 251 254 263 241 234 238 245 245 238 238 241 236 234 234 237 239 250 250 252 256 256 259 261 250 245 248 250 245 250 255 253
302 282 276 294 296 276 275 260 261 259 255 259 254 255 251 253 225 238 243 236 233 232 237 242 241 241 242 241 250 251 263 258 257 256 255 254 248 248 248 250 254 260 269
306 279 268 275 278 275 275 273 270 263 257 257 256 256 245 237 226 234 240 236 230 234 239 247 253 251 252 254 255 257 264 265 261 258 268 254 253 247 250 249 253 258 259
309 290 279 272 275 288 283 279 275 271 269 259 257 252 251 255 241 244 246 242 230 235 242 246 254 259 262 260 261 261 258 263 269 260 257 258 258 246 245 248 248 248 245
283 295 278 277 291 299 296 296 283 271 265 263 254 253 250 246 248 246 248 238 244 244 249 255 257 258 265 268 270 264 262 266 280 271 243 255 260 256 250 248 244 245 246
309 316 312 306 315 321 315 329 316 290 271 265 256 257 257 245 241 235 248 227 232 243 252 255 255 257 259 259 270 282 292 273 294 267 260 260 256 254 248 252 254 256 252
336 316 300 277 320 337 352 356 340 327 286 267 260 258 265 239 229 229 234 238 231 238 247 255 258 260 263 270 287 298 296 282 303 309 263 250 252 249 258 261 260 259 263
346 22 38 19 14 12 16 16 16 3 347 311 269 253 243 239 228 225 238 241 239 244 248 252 255 262 268 275 288 305 314 312 317 298 276 280 265 266 268 269 266 269 269
11 1 17 46 43 38 30 25 26 33 37 38 37 18 224 242 249 242 241 245 237 249 248 253 259 269 274 283 291 297 294 294 296 296 279 276 274 274 274 276 276 276 275
24 18 19 41 39 34 30 25 21 33 47 47 51 44 38 292 253 247 244 256 282 260 261 251 257 268 268 271 277 282 279 276 277 277 280 278 271 275 274 272 275 276 275
11 2 5 5 26 25 23 28 29 38 50 57 59 45 38 43 247 263 269 275 271 268 267 269 267 270 270 272 274 287 289 282 277 281 291 290 279 285 284 294 280 277 281
7 352 355 353 11 29 38 58 60 58 60 67 67 60 58 58 38 345 307 295 288 283 284 289 286 286 283 286 290 294 294 292 288 284 287 283 286 288 284 281 286 289 289
359 359 349 346 356 33 53 53 54 56 58 50 44 39 35 28 16 356 337 323 309 306 300 291 289 291 287 286 291 297 302 304 302 300 299 295 289 285 283 283 284 277 279
345 347 346 336 346 13 29 26 17 357 1 345 337 335 333 327 322 315 309 305 305 307 306 304 299 295 292 291 294 298 301 304 306 300 292 286 282 281 280 282 282 280 278
330 331 327 325 324 307 314 317 304 297 301 303 310 312 312 310 306 302 295 289 289 290 290 289 289 292 296 298 299 303 304 304 303 302 299 293 286 282 281 279 277 277 276
324 315 312 316 310 306 306 306 302 303 303 304 305 307 310 313 312 308 305 301 295 286 278 275 277 279 281 282 283 283 283 282 285 286 288 290 291 292 287 282 278 277 276
310 309 309 307 307 309 313 311 307 309 312 313 316 318 318 315 313 311 309 306 302 300 293 287 282 280 281 281 283 282 282 284 283 281 280 282 284 289 287 286 283 281 276
309 304 293 297 303 308 317 325 324 326 326 320 318 317 315 311 310 310 309 306 305 301 295 292 283 279 280 282 283 282 282 282 283 283 283 285 286 287 286 285 281 277 276
316 318 313 302 304 326 323 327 320 315 315 314 312 312 313 310 309 307 302 299 297 299 298 292 287 284 281 285 288 285 284 285 284 285 287 286 283 284 282 281 279 279 282
312 317 328 319 315 314 313 314 312 311 315 314 312 311 311 309 307 304 301 301 300 298 294 293 292 289 289 289 286 285 284 285 285 285 282 281 280 277 275 277 280 283 285